Terug naar catalogus

TRANSIT 14 DEB

LostPO
NORAD 26817·DEBRIS·🇺🇸 United States

Gelanceerd Aug 18, 1966 vanaf Vandenberg Space Force Base

Loading…

Volgende Passages (komende 24 uur)

TLE

VerouderdSource: Space-Track

Epoch: Jan 30, 2025, 10:02 UTC

1 26817U 66076H   25030.41825123  .00001424  00000-0  16482-2 0  9999
2 26817  88.8255  88.8799 0039380 126.0676 234.4143 13.68143369232048

Volg TRANSIT 14 DEB in realtime met AllMySat

Download on the App Store